Location: Stockholm
(59.3333°N, 18.0500°E)
Time: 12:14:23
(UTC+02:00)

ISS - Pass Details

Date: 26 May 2020
Orbit: 417 x 420 km, 51.6° (Epoch: 02 July)

Event Time Altitude Azimuth Distance (km) Brightness Sun altitude
Rises 23:02:27 0° 263° (W) 2,375 0.3 -6.6°
Reaches altitude 10° 23:05:49 10° 228° (SW) 1,508 -1.1 -6.8°
Maximum altitude 23:06:54 11° 209° (SSW) 1,433 -1.4 -6.9°
Drops below altitude 10° 23:08:00 10° 190° (S) 1,507 -1.4 -6.9°
Enters shadow 23:08:50 - 178° (S) 1,651 -1.3 -7.0°
